Tracking 23940 objects as of 1-Dec-2021
HD Live streaming from Space Station
objects crossing your sky now

PEGASUS DEB

Track PEGASUS DEB now!
10-day predictions


NORAD ID: 24978
Int'l Code: 1994-029ACL
Perigee: 486.8 km
Apogee: 940.4 km
Inclination: 81.4 °
Period: 98.9 minutes
Semi major axis: 7084 km
RCS: 0.0093 m2 (small)
Launch date: May 19, 1994
Source: United States (US)
Launch site: AIR FORCE WESTERN TEST RANGE (AFWTR)

Note: This is SATELLITE DEBRIS
aabbcc
Your satellite tracking list
Your tracking list is empty




NASA's NSSDC Master Catalog

Two Line Element Set (TLE):
1 24978U 94029ACL 21334.88804392  .00003470  00000-0  38917-3 0  9994
2 24978  81.4442 190.1260 0320187 231.8360 125.3596 14.55893745311027
Source of the keplerian elements: AFSPC